Home   Weather   Cancún   Past weeks

Flag for Mexico Past Weather in Cancún, Quintana Roo, Mexico — Yesterday and Last 2 Weeks

Now
73 °F

Passing clouds.


Feels Like: 72 °F
Forecast: 73 / 81 °F
Wind: 6 mph from East

Location: Cancun International Airport

Current Time: Jan 19, 2017 at 2:01:21 am

Latest Report: Jan 18, 2017 at 11:47 pm


Visibility: 7 mi

Pressure: 30.06 "Hg

Humidity: 89%

Dew Point: 70 °F

Location of CancúnLocation

Past Weather in Cancún — Graph

°F

Cancún Temperature Yesterday

Maximum temperature yesterday: 82 °F (at 10:44 am)
Minimum temperature yesterday: 73 °F (at 10:48 pm)
Average temperature yesterday: 78 °F

High & Low Weather Summary for the Past Weeks

 TemperatureHumidityPressure
High86 °F (Jan 7, 11:44 am)100% (Jan 4, 3:45 am)30.40 "Hg (Jan 4, 3:45 am)
Low61 °F (Jan 9, 7:46 am)45% (Jan 10, 10:47 am)29.87 "Hg (Jan 5, 3:49 pm)
Average76 °F73%30.11 "Hg
* Reported Jan 3 11:45 pm — Jan 18 11:47 pm, Cancún, Weather by CustomWeather, © 2017

Note: Actual official high and low records may vary slightly from our data, if they occured in-between our weather recording intervals... More about our weather records

Advertising

Cancún Weather History for the Previous 24 Hours

Scroll right to see more
 ConditionsComfort  
Time TempWeatherWind HumidityBarometerVisibility
11:47 pm
Wed, Jan 18
73 °FPassing clouds.6 mph89%30.06 "Hg7 mi
10:48 pm73 °FPassing clouds.6 mph89%30.07 "Hg7 mi
9:47 pm75 °FPassing clouds.6 mph83%30.06 "Hg7 mi
8:43 pm75 °FPassing clouds.3 mph83%30.05 "Hg7 mi
7:45 pm75 °FPassing clouds.3 mph83%30.05 "Hg7 mi
6:55 pm75 °FPassing clouds.6 mph83%30.04 "Hg7 mi
5:54 pm79 °FPassing clouds.7 mph74%30.04 "Hg7 mi
4:49 pm81 °FPassing clouds.12 mph70%30.03 "Hg7 mi
3:42 pm81 °FScattered clouds.12 mph70%30.03 "Hg7 mi
2:44 pm81 °FScattered clouds.15 mph70%30.04 "Hg7 mi
1:47 pm82 °FScattered clouds.16 mph66%30.06 "Hg7 mi
12:48 pm82 °FScattered clouds.10 mph66%30.11 "Hg7 mi
11:44 am82 °FScattered clouds.15 mph66%30.13 "Hg7 mi
10:44 am82 °FScattered clouds.16 mph66%30.13 "Hg7 mi
9:50 am81 °FScattered clouds.8 mph70%30.13 "Hg7 mi
8:50 am77 °FScattered clouds.8 mph79%30.10 "Hg7 mi
7:45 am75 °FPassing clouds.3 mph83%30.08 "Hg7 mi
6:45 am77 °FPassing clouds.8 mph79%30.07 "Hg7 mi
5:45 am77 °FPassing clouds.8 mph79%30.05 "Hg7 mi
4:45 am77 °FPassing clouds.9 mph79%30.05 "Hg7 mi
3:45 am77 °FPassing clouds.7 mph79%30.06 "Hg7 mi
2:45 am77 °FPassing clouds.8 mph79%30.06 "Hg7 mi
Weather by CustomWeather, © 2017

See weather overviewHow to use our weather pages